Content
SEND FEEDBACK

Daily
Averages
Monthly
Summary
United States of America

CROSS CITY, FLORIDA


Home > North America > United States > Florida
Elevation: 42 feet     Latitude: 29 37N     Longitude: 083 06W

WEATHER
 
SELECT A DAY
Number of Records: 150,260;   Date Range: 1/1/95 - 7/27/14
 
SHARE

PRINT THIS DATA

[ ← Previous Day ]
WEATHER ALMANAC - JANUARY 31, 2013
[ Next Day → ]
[ °C ]   °F
Weather ElementAverageHighLow
Temperature49.6 °F60.1 °F (2:53 pm)35.1 °F (11:53 pm)
Dewpoint32.3 °F46 °F (2:53 am)21.9 °F (1:53 pm)
Humidity55.8 %89 % (11:53 pm)24 % (1:53 pm)
Barometer30.16 in30.28 in (10:53 pm)29.98 in (1:53 am)
Wind Speed6.8 mph13.8 mph (3:53 am)
Wind Gust26.5 mph (5:53 am)
Weather ElementAverage
Wind DirectionWSW (231.3 °)

Weather ElementTotal
Precipitation---
Heating Degree Days17.4 (Base 65)
Averaged from 23 records on January 31, 2013
WEATHER CONDITIONS BREAKOUT
WIND DIRECTION BREAKOUT
WEATHER BY HOUR - JANUARY 31, 2013
[ °C ]   °F
Local TimeTemperatureDewpointHumidityBarometerVisibilityWind DirectionWind SpeedGust SpeedPrecipitationEventsConditions
1:53 AM54.0 °F45.0 °F72 %29.98 inWNW (300°)3.5 mph
2:53 AM54.0 °F46.0 °F75 %30.00 inNW (320°)5.8 mph
3:53 AM54.0 °F42.1 °F64 %30.01 inNW (310°)13.8 mph18.4 mph
4:53 AM51.1 °F39.9 °F66 %30.04 inNW (310°)9.2 mph
5:53 AM48.9 °F36.0 °F61 %30.08 inNNW (330°)13.8 mph26.5 mph
6:53 AM45.0 °F35.1 °F68 %30.11 inNW (310°)8.1 mph
7:53 AM44.1 °F28.0 °F53 %30.15 inNorth (350°)8.1 mph16.1 mph
8:53 AM46.9 °F30.0 °F52 %30.19 inNW (320°)9.2 mph
9:53 AM48.9 °F28.9 °F46 %30.20 inNW (320°)10.4 mph18.4 mph
10:53 AM52.0 °F28.0 °F40 %30.21 inNNW (340°)9.2 mph
11:53 AM55.0 °F26.1 °F33 %30.20 inVariable4.6 mph
12:53 PM57.0 °F27.0 °F32 %30.19 inWNW (300°)9.2 mph
1:53 PM59.0 °F21.9 °F24 %30.17 inNW (320°)12.7 mph19.6 mph
2:53 PM60.1 °F23.0 °F24 %30.17 inNW (320°)9.2 mph16.1 mph
3:53 PM60.1 °F25.0 °F26 %30.17 inNorth (360°)10.4 mph
4:53 PM57.0 °F30.0 °F36 %30.18 inWNW (290°)8.1 mph
5:53 PM55.0 °F30.9 °F40 %30.18 inWNW (290°)6.9 mph
6:53 PM48.9 °F34.0 °F56 %30.20 inSW (230°)3.5 mph
7:53 PM42.1 °F34.0 °F73 %30.23 inCalm
8:53 PM39.0 °F34.0 °F82 %30.25 inCalm
9:53 PM37.0 °F33.1 °F86 %30.27 inCalm
10:53 PM36.0 °F32.0 °F86 %30.28 inCalm
11:53 PM35.1 °F32.0 °F89 %30.27 inCalm
Hourly data recorded from KCTY, located miles away from Cross City, Florida







STORIES FROM OUR PARTNERS